Orbital Elements at Epoch 2459000.5 (2020-May-31.0) TDB
Reference: JPL 15 (heliocentric ecliptic J2000)
Element | Value | Uncertainty (1-sigma) | Units |
e | .2611418223565325 | 7.2575e-08 | |
a | 2.682992187875248 | 2.376e-08 | au |
q | 1.982350718565166 | 2.0231e-07 | au |
i | 12.3154440586076 | 7.291e-06 | deg |
node | 211.0529438980881 | 2.7304e-05 | deg |
peri | 141.7569647894635 | 3.0333e-05 | deg |
M | 21.81320527695593 | 1.1036e-05 | deg |
tp | 2458903.237702374707 (2020-Feb-23.73770237) | 4.8606e-05 | TDB |
period | 1605.194041890572 4.39 | 2.1323e-05 5.838e-08 | d yr |
n | .2242719513062718 | 2.9791e-09 | deg/d |
Q | 3.383633657185331 | 2.9965e-08 | au |
|
| | Orbit Determination Parameters
Additional Information
|